Location: *
(47.6569°N, 7.4256°E)
Time: 03:37:26
(UTC+00:00)

Cosmos 2219 Rocket - Pass Details

Date: 14 December 2019
Orbit: 826 x 848 km, 71.0° (Epoch: 19 January)

Event Time Altitude Azimuth Distance (km) Brightness Sun altitude
Rises 16:39:02 0° 237° (WSW) 3,371 7.4 -9.7°
Reaches altitude 10° 16:41:43 10° 248° (WSW) 2,444 6.3 -10.1°
Maximum altitude 16:46:41 32° 310° (NW) 1,416 3.7 -10.9°
Drops below altitude 10° 16:51:43 10° 13° (NNE) 2,469 4.3 -11.7°
Enters shadow 16:53:32 - 21° (NNE) 3,085 4.7 -11.9°
